Location: Sangrey
(48.2845°N, 109.8206°W)
Time: 21:16:17
(UTC+00:00)

BlueWalker 3 - Visible Passes

Search period start: 28 November 2022 00:00
Search period end: 08 December 2022 00:00
Orbit: 500 x 519 km, 53.2° (Epoch: 28 November)

Date Brightness Start Highest point End Pass type
(mag) Time Alt. Az. Time Alt. Az. Time Alt. Az.
28 Nov 2.3 01:24:49 10° W 01:28:40 57° NNW 01:29:32 45° NNE visible
28 Nov 5.2 03:04:08 10° WNW 03:04:21 11° WNW 03:04:21 11° WNW visible
29 Nov 2.3 01:06:28 10° W 01:10:20 55° NNW 01:11:54 32° NE visible
29 Nov 4.8 02:45:48 10° WNW 02:46:44 16° WNW 02:46:44 16° WNW visible
30 Nov 2.4 00:48:09 10° W 00:52:00 54° NNW 00:54:16 22° NE visible
30 Nov 4.2 02:27:27 10° WNW 02:29:05 22° NW 02:29:05 22° NW visible
01 Dec 2.4 00:29:48 10° W 00:33:39 52° NNW 00:36:36 16° ENE visible
01 Dec 3.6 02:09:06 10° WNW 02:11:26 29° NW 02:11:26 29° NW visible
02 Dec 2.4 00:11:27 10° W 00:15:18 51° NNW 00:18:57 11° ENE visible
02 Dec 3.0 01:50:45 10° WNW 01:53:46 36° NNW 01:53:46 36° NNW visible
03 Dec 2.6 01:32:23 10° WNW 01:36:07 40° N 01:36:07 40° N visible
04 Dec 2.6 01:14:01 10° WNW 01:17:45 41° N 01:18:29 36° NE visible
04 Dec 5.0 02:52:48 10° WNW 02:53:19 13° WNW 02:53:19 13° WNW visible
05 Dec 2.6 00:55:39 10° WNW 00:59:22 41° N 01:00:54 28° ENE visible
05 Dec 4.4 02:34:25 10° WNW 02:35:43 20° WNW 02:35:43 20° WNW visible
06 Dec 2.5 00:37:16 10° WNW 00:41:00 42° N 00:43:20 20° ENE visible
06 Dec 3.6 02:16:01 10° WNW 02:18:11 31° WNW 02:18:11 31° WNW visible
07 Dec 2.5 00:18:52 10° WNW 00:22:37 42° N 00:25:53 13° E visible
07 Dec 2.6 01:57:37 10° WNW 02:00:43 54° WNW 02:00:43 54° WNW visible
